• In Uzbekistan
  • List of Countries
  • For 7 days
  • Water Temperature
  • Satellite Maps
  • Weather Map
  • Weather Widgets
  • user-avatar
    Login

    Hourly Weather Lankaran

    Today, 25 September, Tuesday

    Time Temperature Precipitation Wind Pressure Humidity
    00:00 +13°C° 0 mm 1 mps 636 mmHg 80%
    01:00 +13°C° 0 mm 1 mps 636 mmHg 78%
    02:00 +13°C° 0 mm 1 mps 636 mmHg 76%
    03:00 +12°C° 0 mm 1 mps 635 mmHg 75%
    04:00 +12°C° 0 mm 1 mps 635 mmHg 73%
    05:00 +12°C° 0 mm 1 mps 635 mmHg 70%
    06:00 +12°C° 0 mm 1 mps 635 mmHg 68%
    07:00 +15°C° 0 mm 2 mps 636 mmHg 58%
    08:00 +17°C° 0 mm 2 mps 637 mmHg 47%
    09:00 +20°C° 0 mm 2 mps 637 mmHg 37%
    10:00 +21°C° 0 mm 2 mps 637 mmHg 35%
    11:00 +23°C° 0 mm 2 mps 637 mmHg 32%
    12:00 +24°C° 0 mm 3 mps 637 mmHg 30%
    13:00 +24°C° 0 mm 3 mps 636 mmHg 31%
    14:00 +24°C° 0 mm 3 mps 636 mmHg 32%
    15:00 +25°C° 0 mm 3 mps 635 mmHg 33%
    16:00 +22°C° 0 mm 3 mps 635 mmHg 40%
    17:00 +20°C° 0 mm 2 mps 634 mmHg 47%
    18:00 +18°C° 0 mm 2 mps 634 mmHg 55%
    19:00 +17°C° 0 mm 2 mps 634 mmHg 56%
    20:00 +17°C° 0 mm 2 mps 634 mmHg 57%
    21:00 +16°C° 0 mm 2 mps 634 mmHg 58%
    22:00 +16°C° 0 mm 2 mps 634 mmHg 57%
    23:00 +16°C° 0 mm 2 mps 634 mmHg 57%

    Tomorrow, 26 September, Wednesday

    Time Temperature Precipitation Wind Pressure Humidity
    00:00 +15°C° 0 mm 2 mps 634 mmHg 57%
    01:00 +15°C° 0 mm 1 mps 634 mmHg 58%
    02:00 +15°C° 0 mm 1 mps 633 mmHg 59%
    03:00 +14°C° 0 mm 1 mps 633 mmHg 60%
    04:00 +14°C° 0 mm 1 mps 634 mmHg 63%
    05:00 +14°C° 0 mm 1 mps 634 mmHg 66%
    06:00 +14°C° 0 mm 1 mps 634 mmHg 68%
    07:00 +16°C° 0 mm 1 mps 635 mmHg 63%
    08:00 +18°C° 0 mm 2 mps 636 mmHg 57%
    09:00 +20°C° 0 mm 2 mps 637 mmHg 52%
    10:00 +20°C° 0 mm 3 mps 637 mmHg 50%
    11:00 +21°C° 0 mm 3 mps 637 mmHg 48%
    12:00 +22°C° 0 mm 4 mps 637 mmHg 46%
    13:00 +21°C° 0.2 mm 4 mps 637 mmHg 52%
    14:00 +20°C° 0.2 mm 4 mps 637 mmHg 58%
    15:00 +20°C° 0.2 mm 5 mps 636 mmHg 64%
    16:00 +17°C° 0.3 mm 5 mps 636 mmHg 71%
    17:00 +16°C° 0.3 mm 5 mps 636 mmHg 78%
    18:00 +15°C° 0.3 mm 5 mps 636 mmHg 85%
    19:00 +15°C° 0.5 mm 5 mps 636 mmHg 87%
    20:00 +14°C° 0.5 mm 5 mps 637 mmHg 88%
    21:00 +14°C° 0.5 mm 5 mps 637 mmHg 89%
    22:00 +14°C° 0.3 mm 5 mps 637 mmHg 89%
    23:00 +13°C° 0.3 mm 5 mps 637 mmHg 89%

    Day after tomorrow, 27 September, Thursday

    Time Temperature Precipitation Wind Pressure Humidity
    00:00 +13°C° 0.3 mm 4 mps 638 mmHg 89%
    01:00 +13°C° 0.4 mm 4 mps 638 mmHg 90%
    02:00 +13°C° 0.4 mm 4 mps 638 mmHg 90%
    03:00 +12°C° 0.4 mm 4 mps 638 mmHg 90%
    04:00 +12°C° 0.2 mm 4 mps 638 mmHg 91%
    05:00 +12°C° 0.2 mm 4 mps 638 mmHg 91%
    06:00 +12°C° 0.2 mm 4 mps 638 mmHg 91%
    07:00 +13°C° 0.2 mm 4 mps 638 mmHg 88%
    08:00 +13°C° 0.2 mm 4 mps 639 mmHg 84%
    09:00 +14°C° 0.2 mm 4 mps 639 mmHg 80%
    10:00 +14°C° 0.2 mm 4 mps 639 mmHg 78%
    11:00 +15°C° 0.2 mm 4 mps 639 mmHg 77%
    12:00 +15°C° 0.2 mm 4 mps 639 mmHg 75%
    13:00 +15°C° 0.2 mm 4 mps 639 mmHg 75%
    14:00 +15°C° 0.2 mm 4 mps 639 mmHg 75%
    15:00 +15°C° 0.2 mm 4 mps 638 mmHg 75%
    16:00 +15°C° 0.1 mm 4 mps 639 mmHg 79%
    17:00 +14°C° 0.1 mm 4 mps 639 mmHg 83%
    18:00 +13°C° 0.1 mm 3 mps 639 mmHg 87%
    19:00 +13°C° 0.3 mm 3 mps 639 mmHg 88%
    20:00 +13°C° 0.3 mm 3 mps 639 mmHg 89%
    21:00 +13°C° 0.3 mm 3 mps 640 mmHg 90%
    22:00 +13°C° 0.2 mm 3 mps 640 mmHg 90%
    23:00 +13°C° 0.2 mm 3 mps 639 mmHg 91%

    28 September, Friday

    Time Temperature Precipitation Wind Pressure Humidity
    00:00 +13°C° 0.2 mm 2 mps 639 mmHg 91%
    01:00 +13°C° 0.1 mm 2 mps 639 mmHg 92%
    02:00 +13°C° 0.1 mm 2 mps 639 mmHg 92%
    03:00 +13°C° 0.1 mm 2 mps 639 mmHg 93%
    04:00 +13°C° 0.1 mm 2 mps 639 mmHg 93%
    05:00 +13°C° 0.1 mm 2 mps 639 mmHg 93%
    06:00 +12°C° 0.1 mm 3 mps 639 mmHg 93%
    07:00 +13°C° 0.2 mm 3 mps 640 mmHg 89%
    08:00 +13°C° 0.2 mm 3 mps 640 mmHg 85%
    09:00 +14°C° 0.2 mm 3 mps 640 mmHg 80%
    10:00 +14°C° 0.1 mm 3 mps 640 mmHg 78%
    11:00 +16°C° 0.1 mm 3 mps 640 mmHg 76%
    12:00 +16°C° 0.1 mm 3 mps 640 mmHg 75%
    13:00 +16°C° 0.1 mm 3 mps 640 mmHg 74%
    14:00 +17°C° 0.1 mm 3 mps 640 mmHg 73%
    15:00 +17°C° 0.1 mm 3 mps 639 mmHg 71%
    16:00 +16°C° 0.1 mm 3 mps 639 mmHg 76%
    17:00 +14°C° 0.1 mm 3 mps 639 mmHg 80%
    18:00 +15°C° 0.1 mm 2 mps 639 mmHg 84%
    19:00 +14°C° 0.1 mm 2 mps 639 mmHg 86%
    20:00 +14°C° 0.1 mm 2 mps 639 mmHg 88%
    21:00 +14°C° 0.1 mm 2 mps 639 mmHg 89%
    22:00 +14°C° 0 mm 2 mps 639 mmHg 90%
    23:00 +13°C° 0 mm 1 mps 638 mmHg 91%

    29 September, Saturday

    Time Temperature Precipitation Wind Pressure Humidity
    00:00 +13°C° 0 mm 1 mps 638 mmHg 92%
    01:00 +13°C° 0 mm 1 mps 638 mmHg 92%
    02:00 +13°C° 0 mm 1 mps 637 mmHg 92%
    03:00 +13°C° 0 mm 1 mps 637 mmHg 92%
    04:00 +12°C° 0 mm 1 mps 637 mmHg 92%
    05:00 +12°C° 0 mm 1 mps 637 mmHg 92%
    06:00 +12°C° 0 mm 1 mps 637 mmHg 92%
    07:00 +14°C° 0 mm 1 mps 637 mmHg 81%
    08:00 +16°C° 0 mm 1 mps 638 mmHg 70%
    09:00 +18°C° 0 mm 2 mps 638 mmHg 59%
    10:00 +20°C° 0 mm 2 mps 638 mmHg 55%
    11:00 +21°C° 0 mm 2 mps 638 mmHg 51%
    12:00 +22°C° 0 mm 3 mps 638 mmHg 47%
    13:00 +22°C° 0 mm 3 mps 637 mmHg 48%
    14:00 +22°C° 0 mm 3 mps 637 mmHg 49%
    15:00 +22°C° 0 mm 3 mps 636 mmHg 50%
    16:00 +21°C° 0 mm 3 mps 636 mmHg 58%
    17:00 +19°C° 0 mm 3 mps 636 mmHg 66%
    18:00 +18°C° 0 mm 2 mps 635 mmHg 73%
    19:00 +17°C° 0 mm 2 mps 635 mmHg 74%
    20:00 +17°C° 0 mm 2 mps 635 mmHg 75%
    21:00 +16°C° 0 mm 2 mps 635 mmHg 77%
    22:00 +16°C° 0 mm 2 mps 635 mmHg 74%
    23:00 +16°C° 0 mm 2 mps 635 mmHg 71%

    30 September, Sunday

    Time Temperature Precipitation Wind Pressure Humidity
    00:00 +15°C° 0 mm 2 mps 634 mmHg 68%
    01:00 +15°C° 0 mm 1 mps 634 mmHg 64%
    02:00 +15°C° 0 mm 1 mps 634 mmHg 61%
    03:00 +15°C° 0 mm 1 mps 634 mmHg 58%
    04:00 +15°C° 0 mm 1 mps 634 mmHg 57%
    05:00 +15°C° 0 mm 1 mps 634 mmHg 56%
    06:00 +15°C° 0 mm 1 mps 634 mmHg 55%
    07:00 +18°C° 0 mm 1 mps 635 mmHg 47%
    08:00 +20°C° 0 mm 2 mps 636 mmHg 39%
    09:00 +24°C° 0 mm 2 mps 637 mmHg 31%
    10:00 +25°C° 0 mm 2 mps 637 mmHg 30%
    11:00 +26°C° 0 mm 3 mps 637 mmHg 29%
    12:00 +27°C° 0 mm 3 mps 637 mmHg 28%
    13:00 +27°C° 0 mm 3 mps 636 mmHg 29%
    14:00 +27°C° 0 mm 3 mps 636 mmHg 31%
    15:00 +27°C° 0 mm 2 mps 636 mmHg 33%
    16:00 +24°C° 0 mm 2 mps 635 mmHg 40%
    17:00 +21°C° 0 mm 2 mps 635 mmHg 48%
    18:00 +20°C° 0 mm 1 mps 634 mmHg 56%
    19:00 +20°C° 0 mm 1 mps 634 mmHg 52%
    20:00 +19°C° 0 mm 1 mps 634 mmHg 49%
    21:00 +19°C° 0 mm 1 mps 634 mmHg 45%
    22:00 +19°C° 0 mm 1 mps 634 mmHg 42%
    23:00 +18°C° 0 mm 1 mps 634 mmHg 38%
    Show more